Regional Weather Roundup
Issued by NWS

Home | Current Version | Previous Version | Graphics & Text | Print | Product List | Glossary On
Versions: 1 2 3 4 5 6 7 8 9 10 11 12 13 14 15 16 17 18 19 20 21 22 23 24 25 26 27 28 29 30 31 32 33 34 35 36 37 38 39 40 41 42 43 44 45 46 47 48 49 50
000
ASUS45 KTFX 251804
RWRMT
MONTANA HOURLY WEATHER ROUNDUP
NATIONAL WEATHER SERVICE GREAT FALLS MT
1104 AM MST THU DEC 25 2014

NOTE: "FAIR" INDICATES FEW OR NO CLOUDS BELOW 12000 FEET WITH NO
SIGNIFICANT WEATHER AND/OR OBSTRUCTIONS TO VISIBILITY.

* THESE STATIONS ARE NOT UNDER NWS QUALITY CONTROL. THEY DO NOT
   REPORT WEATHER SUCH AS PRECIPITATION OR FOG.

MTZ001>007-043-251900-
WEST OF THE DIVIDE
CITY           SKY/WX    TMP DP  RH WIND       PRES   REMARKS
KALISPELL      SUNNY     21  19  92 SW3       29.96R
MISSOULA       PTSUNNY   25  25 100 CALM      29.96R
BUTTE          CLOUDY    21  16  81 W8        29.83R WCI  11
MULLAN PASS    HAZE      25  18  75 CALM      29.84R VSB M1/4
* ESSEX        N/A       19  13  77 N/A        N/A
* LINCOLN      N/A       19  16  88 S2         N/A
* LOOKOUT PASS N/A       24  21  88 SE4        N/A
* POLSON       N/A       24  23  96 E1         N/A
* RONAN APT    SUNNY     28  27  96 N/A        N/A
* SEELEY LAKE  N/A       21  18  88 N/A        N/A
* THOMP F APT  PTCLDY    20  11  68 N10G24     N/A   WCI   9
$$

MTZ008-052>055-251900-
SOUTHWEST MONTANA
CITY           SKY/WX    TMP DP  RH WIND       PRES   REMARKS
BOZEMAN        CLOUDY    25  19  78 S9        29.84R WCI  16
DILLON         CLOUDY    21  18  88 E9        29.80R WCI  11
* W YELLOWSTON CLOUDY    19  13  77 N6G15      N/A   WCI  11
* THREE FORKS  CLOUDY    27  27 100 NE7        N/A   WCI  19
* BOULDER HILL N/A       19  15  84 N12        N/A   WCI   6
* MONIDA PASS  N/A       18  11  74 NW18G28    N/A   WCI   2
* RAYNOLDS PAS N/A       16  14  92 NW29G37    N/A   WCI  -4
* WHITEHALL    N/A       26  16  66 NE8G16     N/A   WCI  18
* WISE RIVER   N/A       21  12  68 N2G7       N/A
$$

MTZ009>010-012-014-046-048-049-054-251900-
EAST SLOPES AND CENTRAL MONTANA
CITY           SKY/WX    TMP DP  RH WIND       PRES   REMARKS
CUT BANK       FOG       10   9  96 CALM      29.91R
GREAT FALLS    N/A       25  19  78 CALM      29.93R
HELENA         PTSUNNY   25  19  78 W8        29.91R WCI  16
* DEARBORN     N/A       25  21  85 S4         N/A
* EAST GLACIER N/A       14   9  80 E1         N/A
* MONARCH      N/A       18  14  84 NW4        N/A
* PENDROY      N/A       21  19  92 N/A        N/A
* ROGERS PASS  N/A       19  16  88 S1         N/A
* SWEET GRASS  N/A       23  23 100 SW2        N/A
$$

MTZ011-013-016-021-035-040-045-047-050-051-251900-
NORTH CENTRAL MONTANA
CITY           SKY/WX    TMP DP  RH WIND       PRES   REMARKS
HAVRE          CLOUDY    25  19  78 NW12      29.96R WCI  14
LEWISTOWN      CLOUDY    21  18  88 NW10      29.87S WCI  10
* N BAR RANCH  CLOUDY    21  19  92 NW14      29.85R WCI   8
* CHESTER      N/A       24  18  78 N/A        N/A
* DENTON       N/A       22  19  88 NW11       N/A   WCI  11
* GEYSER       N/A       21  19  92 W15        N/A   WCI   7
* JUDITH GAP   N/A       19  19 100 VRB21      N/A   WCI   3
* LOMA         N/A       26  21  81 NW6G11     N/A   WCI  19
$$

MTZ017>020-022>027-061-062-251900-
NORTHEAST MONTANA
CITY           SKY/WX    TMP DP  RH WIND       PRES   REMARKS
GLASGOW        CLOUDY    25  16  69 NW14      29.91S WCI  13
GLENDIVE       CLOUDY    25  18  75 NW13      29.88R WCI  13
JORDAN         PTSUNNY   27  19  72 N14       29.90R WCI  16
SIDNEY         CLOUDY    27  18  69 NW10      29.90R WCI  18
WOLF POINT     CLOUDY    27  18  69 N10       29.93R WCI  18
* BEAVER HILL  N/A       21  18  88 NW16G24    N/A   WCI   7
* CIRCLE       N/A       25  20  81 N6G11      N/A   WCI  18
* LINDSAY DVD  N/A       22  19  88 NW17G22    N/A   WCI   8
* NAVAJO       N/A       20  16  84 NW15G20    N/A   WCI   6
* SACO         N/A       24  19  81 NW12       N/A   WCI  13
$$

MTZ028>042-056>058-251900-
SOUTHCENTRAL AND SOUTHEAST MONTANA
CITY           SKY/WX    TMP DP  RH WIND       PRES   REMARKS
BAKER          CLOUDY    25  21  85 N15       29.83R WCI  13
BILLINGS       CLOUDY    27  21  78 NE12      29.87R WCI  16
LIVINGSTON     LGT SNOW  25  19  78 E9        29.83R VSB 1    WCI  16
MILES CITY     CLOUDY    25  19  78 N12       29.89R WCI  14
* LAUREL APT   CLOUDY    27  18  69 N/A        N/A
* ROUNDUP APT  CLOUDY    25  18  75 N8         N/A   WCI  16
* ALZADA       N/A       25  23  92 NW9        N/A   WCI  16
* HYSHAM       N/A       24  20  85 NE4G9      N/A
* REED POINT   N/A       26  23  88 W2         N/A
* ROSCOE HILL  N/A       21  17  84 NW6G12     N/A   WCI  13
$$

REGIONAL REPORTS...DAKOTAS
CITY           SKY/WX    TMP DP  RH WIND       PRES   REMARKS
WILLISTON      CLOUDY    27  21  78 NW15      29.86R WCI  15
DICKINSON      CLOUDY    27  19  72 NW15      29.78R WCI  15
BEACH          LGT RAIN  23  21  92 NW16G25   29.85R WCI  10
CROSBY         CLOUDY    23  21  92 NW20G25   29.85R WCI   8
WATFORD CITY   CLOUDY    25  21  85 NW7       29.83R WCI  17
BISMARCK       LGT SNOW  28  27  96 W5        29.80R VSB 2 1/2 WCI  22
GRAND FORKS    CLOUDY    28  25  89 N12       29.75R WCI  18
FARGO          CLOUDY    28  25  89 NW7       29.75R WCI  21
BUFFALO SD     CLOUDY    27  21  78 N15       29.72R WCI  15
RAPID CITY     LGT SNOW  28  25  89 N23       29.72R VSB 1    WCI  14
$$

REGIONAL REPORTS...WYOMING/IDAHO/WASHINGTON
CITY           SKY/WX    TMP DP  RH WIND       PRES   REMARKS
GILLETTE       LGT SNOW  25  21  85 N17       29.74R VSB 3/4  WCI  12
SHERIDAN       LGT SNOW  27  21  78 NW7       29.81R VSB 3/4  WCI  19
CODY           CLOUDY    21  21 100 N17G25    29.75R VSB 1 1/4 WCI   7
YELLOWSTONE LA CLOUDY    16  10  77 NE6       29.64R WCI   7
SALMON         CLOUDY    30  18  61 N12       29.84R WCI  20
MULLAN PASS    HAZE      25  18  75 CALM      29.84S VSB M1/4
SAND POINT     CLOUDY    30  30 100 N6        30.03R WCI  24
SPOKANE        SUNNY     30  27  89 SE6       30.02R WCI  24
$$

REGIONAL REPORTS...SASKATCHEWAN
CITY           SKY/WX    TMP DP  RH WIND       PRES   REMARKS
SWIFT CURRENT  LGT SNOW  10   9  96 NW13G18   29.92R WCI  -5

$$




USA.gov is the U.S. government's official web portal to all federal, state and local government web resources and services.